This is the latest recevied weather packets stored in our database for station/object EA1L-13. If no packets are shown the sender has not sent any weather packets the latest 10 day(s).
| Time | Temp. | Humidity | Pressure | Rain* | Wind** | Luminosity | Snow |
|---|---|---|---|---|---|---|---|
| 1777546804 | 17.22° C | 80% | 1013.5 hPa | 0 mm | - | - | - |
| 1777545904 | 16.67° C | 77% | 1013.3 hPa | 0 mm | - | - | - |
| 1777545005 | 16.67° C | 77% | 1013.4 hPa | 0 mm | - | - | - |
| 1777544104 | 16.11° C | 79% | 1013.3 hPa | 0 mm | - | - | - |
| 1777543204 | 16.67° C | 86% | 1013.3 hPa | 0 mm | - | - | - |
| 1777542305 | 16.67° C | 99% | 1013.2 hPa | 0 mm | - | - | - |
| 1777541405 | 17.22° C | 100% | 1013 hPa | 0 mm | - | - | - |
| 1777540504 | 17.22° C | 100% | 1012.8 hPa | 0 mm | - | - | - |
| 1777539604 | 17.78° C | 100% | 1012.8 hPa | 0 mm | - | - | - |
| 1777538705 | 18.89° C | 100% | 1012.7 hPa | 0 mm | - | - | - |
| 1777537805 | 18.89° C | 100% | 1012.8 hPa | 0 mm | - | - | - |
| 1777536905 | 18.89° C | 100% | 1012.8 hPa | 0 mm | - | - | - |
| 1777536004 | 18.33° C | 100% | 1012.7 hPa | 0 mm | - | - | - |
| 1777535105 | 17.78° C | 100% | 1012.6 hPa | 0 mm | - | - | - |
| 1777534205 | 16.67° C | 100% | 1012.6 hPa | 0 mm | - | - | - |
| 1777533304 | 16.11° C | 100% | 1012.5 hPa | 0 mm | - | - | - |
| 1777532404 | 15° C | 100% | 1012.3 hPa | 0 mm | - | - | - |
| 1777531504 | 14.44° C | 100% | 1012.2 hPa | 0 mm | - | - | - |
| 1777530605 | 14.44° C | 100% | 1012.1 hPa | 0 mm | - | - | - |
| 1777529705 | 14.44° C | 100% | 1011.8 hPa | 0 mm | - | - | - |
| 1777528805 | 13.89° C | 100% | 1011.5 hPa | 0 mm | - | - | - |
| 1777527904 | 13.89° C | 100% | 1011.4 hPa | 0 mm | - | - | - |
| 1777527005 | 13.89° C | 100% | 1011.3 hPa | 0 mm | - | - | - |
| 1777526104 | 13.89° C | 100% | 1011.2 hPa | 0 mm | - | - | - |
| 1777525204 | 13.33° C | 100% | 1011.1 hPa | 0 mm | - | - | - |
* Rain latest hour (hover to see other rain measurements)
** Current wind speed in m/s (hover to see current wind gust speed)